• In Belgium
  • List of Countries
  • For 7 days
  • Water Temperature
  • Satellite Maps
  • Weather Map
  • Weather Widgets
  • user-avatar
    Login

    Hourly Weather Asse

    Today, 24 October, Tuesday

    Time Temperature Precipitation Wind Pressure Humidity
    00:00 +13°C° 0 mm 4 mps 761 mmHg 93%
    01:00 +13°C° 0 mm 4 mps 761 mmHg 94%
    02:00 +13°C° 0 mm 5 mps 761 mmHg 94%
    03:00 +13°C° 0 mm 5 mps 761 mmHg 94%
    04:00 +13°C° 0 mm 5 mps 761 mmHg 94%
    05:00 +13°C° 0 mm 5 mps 761 mmHg 94%
    06:00 +13°C° 0 mm 5 mps 761 mmHg 94%
    07:00 +13°C° 0.2 mm 5 mps 761 mmHg 93%
    08:00 +14°C° 0.2 mm 5 mps 761 mmHg 93%
    09:00 +14°C° 0.2 mm 5 mps 761 mmHg 92%
    10:00 +15°C° 0.1 mm 5 mps 761 mmHg 92%
    11:00 +15°C° 0.1 mm 5 mps 761 mmHg 91%
    12:00 +16°C° 0.1 mm 6 mps 761 mmHg 91%
    13:00 +16°C° 0 mm 5 mps 761 mmHg 90%
    14:00 +16°C° 0 mm 5 mps 761 mmHg 88%
    15:00 +17°C° 0 mm 5 mps 761 mmHg 87%
    16:00 +16°C° 0 mm 5 mps 761 mmHg 89%
    17:00 +16°C° 0 mm 5 mps 761 mmHg 91%
    18:00 +15°C° 0 mm 4 mps 762 mmHg 93%
    19:00 +15°C° 0 mm 4 mps 762 mmHg 94%
    20:00 +15°C° 0 mm 4 mps 762 mmHg 94%
    21:00 +14°C° 0 mm 4 mps 762 mmHg 94%
    22:00 +14°C° 0 mm 4 mps 762 mmHg 94%
    23:00 +14°C° 0 mm 4 mps 762 mmHg 94%

    Tomorrow, 25 October, Wednesday

    Time Temperature Precipitation Wind Pressure Humidity
    00:00 +14°C° 0 mm 5 mps 762 mmHg 93%
    01:00 +14°C° 0 mm 5 mps 762 mmHg 93%
    02:00 +14°C° 0 mm 5 mps 761 mmHg 93%
    03:00 +13°C° 0 mm 5 mps 761 mmHg 93%
    04:00 +14°C° 0 mm 5 mps 761 mmHg 93%
    05:00 +14°C° 0 mm 5 mps 761 mmHg 93%
    06:00 +14°C° 0 mm 5 mps 761 mmHg 92%
    07:00 +14°C° 0 mm 6 mps 762 mmHg 90%
    08:00 +15°C° 0 mm 6 mps 762 mmHg 87%
    09:00 +15°C° 0 mm 6 mps 762 mmHg 85%
    10:00 +16°C° 0 mm 5 mps 762 mmHg 82%
    11:00 +17°C° 0 mm 5 mps 762 mmHg 79%
    12:00 +18°C° 0 mm 4 mps 763 mmHg 76%
    13:00 +18°C° 0 mm 4 mps 763 mmHg 76%
    14:00 +18°C° 0 mm 3 mps 763 mmHg 77%
    15:00 +18°C° 0 mm 3 mps 763 mmHg 78%
    16:00 +17°C° 0 mm 2 mps 763 mmHg 81%
    17:00 +16°C° 0 mm 2 mps 763 mmHg 85%
    18:00 +15°C° 0 mm 2 mps 763 mmHg 89%
    19:00 +15°C° 0 mm 2 mps 764 mmHg 90%
    20:00 +15°C° 0 mm 2 mps 764 mmHg 90%
    21:00 +14°C° 0 mm 2 mps 764 mmHg 91%
    22:00 +14°C° 0 mm 2 mps 764 mmHg 91%
    23:00 +14°C° 0 mm 2 mps 764 mmHg 92%

    Day after tomorrow, 26 October, Thursday

    Time Temperature Precipitation Wind Pressure Humidity
    00:00 +13°C° 0 mm 2 mps 764 mmHg 92%
    01:00 +13°C° 0 mm 2 mps 764 mmHg 93%
    02:00 +13°C° 0 mm 2 mps 764 mmHg 93%
    03:00 +13°C° 0 mm 2 mps 764 mmHg 93%
    04:00 +13°C° 0 mm 2 mps 764 mmHg 93%
    05:00 +12°C° 0 mm 2 mps 764 mmHg 93%
    06:00 +12°C° 0 mm 2 mps 764 mmHg 93%
    07:00 +13°C° 0 mm 2 mps 764 mmHg 90%
    08:00 +15°C° 0 mm 2 mps 764 mmHg 86%
    09:00 +16°C° 0 mm 2 mps 765 mmHg 83%
    10:00 +17°C° 0 mm 2 mps 764 mmHg 78%
    11:00 +18°C° 0 mm 2 mps 764 mmHg 74%
    12:00 +19°C° 0 mm 2 mps 764 mmHg 69%
    13:00 +19°C° 0 mm 2 mps 764 mmHg 71%
    14:00 +19°C° 0 mm 2 mps 764 mmHg 72%
    15:00 +20°C° 0 mm 1 mps 764 mmHg 73%
    16:00 +19°C° 0 mm 1 mps 764 mmHg 78%
    17:00 +16°C° 0 mm 1 mps 764 mmHg 82%
    18:00 +15°C° 0 mm 1 mps 764 mmHg 86%
    19:00 +15°C° 0 mm 1 mps 764 mmHg 87%
    20:00 +15°C° 0 mm 1 mps 764 mmHg 88%
    21:00 +14°C° 0 mm 1 mps 764 mmHg 88%
    22:00 +14°C° 0 mm 2 mps 764 mmHg 89%
    23:00 +14°C° 0 mm 2 mps 764 mmHg 90%

    27 October, Friday

    Time Temperature Precipitation Wind Pressure Humidity
    00:00 +14°C° 0 mm 2 mps 764 mmHg 90%
    01:00 +14°C° 0 mm 2 mps 764 mmHg 92%
    02:00 +12°C° 0 mm 3 mps 763 mmHg 93%
    03:00 +12°C° 0 mm 3 mps 763 mmHg 94%
    04:00 +12°C° 0 mm 3 mps 763 mmHg 94%
    05:00 +12°C° 0 mm 3 mps 763 mmHg 94%
    06:00 +12°C° 0 mm 3 mps 763 mmHg 95%
    07:00 +13°C° 0.1 mm 3 mps 763 mmHg 92%
    08:00 +13°C° 0.1 mm 3 mps 764 mmHg 89%
    09:00 +14°C° 0.1 mm 4 mps 764 mmHg 86%
    10:00 +14°C° 0.1 mm 4 mps 764 mmHg 82%
    11:00 +14°C° 0.1 mm 4 mps 764 mmHg 77%
    12:00 +15°C° 0.1 mm 5 mps 765 mmHg 72%
    13:00 +14°C° 0 mm 5 mps 765 mmHg 71%
    14:00 +14°C° 0 mm 4 mps 765 mmHg 70%
    15:00 +14°C° 0 mm 4 mps 765 mmHg 69%
    16:00 +13°C° 0 mm 4 mps 765 mmHg 74%
    17:00 +11°C° 0 mm 3 mps 765 mmHg 79%
    18:00 +10°C° 0 mm 3 mps 765 mmHg 84%
    19:00 +10°C° 0 mm 2 mps 766 mmHg 84%
    20:00 +9°C° 0 mm 2 mps 766 mmHg 84%
    21:00 +9°C° 0 mm 2 mps 766 mmHg 84%
    22:00 +9°C° 0 mm 2 mps 766 mmHg 83%
    23:00 +9°C° 0 mm 2 mps 766 mmHg 81%

    28 October, Saturday

    Time Temperature Precipitation Wind Pressure Humidity
    00:00 +10°C° 0 mm 1 mps 766 mmHg 79%
    01:00 +9°C° 0 mm 2 mps 765 mmHg 79%
    02:00 +9°C° 0 mm 2 mps 765 mmHg 80%
    03:00 +9°C° 0 mm 2 mps 764 mmHg 80%
    04:00 +8°C° 0 mm 2 mps 764 mmHg 81%
    05:00 +8°C° 0 mm 2 mps 764 mmHg 83%
    06:00 +8°C° 0 mm 2 mps 763 mmHg 84%
    07:00 +9°C° 0 mm 3 mps 763 mmHg 82%
    08:00 +9°C° 0 mm 3 mps 762 mmHg 81%
    09:00 +10°C° 0 mm 4 mps 762 mmHg 79%
    10:00 +11°C° 0 mm 4 mps 761 mmHg 77%
    11:00 +12°C° 0 mm 4 mps 760 mmHg 74%
    12:00 +13°C° 0 mm 5 mps 760 mmHg 71%
    13:00 +12°C° 0.1 mm 4 mps 759 mmHg 74%
    14:00 +12°C° 0.1 mm 4 mps 758 mmHg 77%
    15:00 +12°C° 0.1 mm 4 mps 757 mmHg 81%
    16:00 +11°C° 0.4 mm 3 mps 757 mmHg 85%
    17:00 +11°C° 0.4 mm 3 mps 757 mmHg 88%
    18:00 +11°C° 0.4 mm 3 mps 757 mmHg 92%
    19:00 +11°C° 0.4 mm 4 mps 757 mmHg 91%
    20:00 +10°C° 0.4 mm 4 mps 757 mmHg 89%
    21:00 +10°C° 0.4 mm 4 mps 757 mmHg 87%
    22:00 +10°C° 0 mm 4 mps 757 mmHg 87%
    23:00 +10°C° 0 mm 4 mps 757 mmHg 86%

    29 October, Sunday

    Time Temperature Precipitation Wind Pressure Humidity
    00:00 +8°C° 0 mm 5 mps 757 mmHg 86%
    01:00 +8°C° 0 mm 5 mps 758 mmHg 83%
    02:00 +8°C° 0 mm 5 mps 758 mmHg 80%
    03:00 +8°C° 0 mm 5 mps 758 mmHg 77%
    04:00 +8°C° 0 mm 5 mps 758 mmHg 77%
    05:00 +8°C° 0 mm 5 mps 759 mmHg 76%
    06:00 +8°C° 0 mm 5 mps 759 mmHg 75%
    07:00 +9°C° 0.1 mm 5 mps 760 mmHg 74%
    08:00 +9°C° 0.1 mm 5 mps 760 mmHg 72%
    09:00 +9°C° 0.1 mm 5 mps 760 mmHg 71%
    10:00 +10°C° 0 mm 5 mps 761 mmHg 69%
    11:00 +10°C° 0 mm 5 mps 761 mmHg 67%
    12:00 +10°C° 0 mm 5 mps 761 mmHg 64%
    13:00 +10°C° 0 mm 5 mps 762 mmHg 66%
    14:00 +10°C° 0 mm 5 mps 762 mmHg 67%
    15:00 +11°C° 0 mm 4 mps 762 mmHg 68%
    16:00 +10°C° 0 mm 4 mps 762 mmHg 71%
    17:00 +10°C° 0 mm 3 mps 762 mmHg 73%
    18:00 +9°C° 0 mm 3 mps 762 mmHg 76%
    19:00 +9°C° 0 mm 3 mps 763 mmHg 78%
    20:00 +8°C° 0 mm 3 mps 763 mmHg 79%
    21:00 +8°C° 0 mm 3 mps 763 mmHg 81%
    22:00 +8°C° 0 mm 3 mps 763 mmHg 81%
    23:00 +8°C° 0 mm 3 mps 763 mmHg 81%

    30 October, Monday

    Time Temperature Precipitation Wind Pressure Humidity
    00:00 +7°C° 0 mm 4 mps 762 mmHg 81%
    01:00 +7°C° 0 mm 4 mps 762 mmHg 81%
    02:00 +7°C° 0 mm 4 mps 762 mmHg 82%
    03:00 +8°C° 0 mm 4 mps 762 mmHg 82%
    04:00 +8°C° 0 mm 4 mps 762 mmHg 83%
    05:00 +8°C° 0 mm 4 mps 762 mmHg 84%
    06:00 +8°C° 0 mm 4 mps 762 mmHg 85%
    07:00 +8°C° 0.1 mm 4 mps 762 mmHg 85%
    08:00 +10°C° 0.1 mm 3 mps 762 mmHg 86%
    09:00 +10°C° 0.1 mm 3 mps 762 mmHg 87%
    10:00 +11°C° 0.1 mm 3 mps 762 mmHg 86%
    11:00 +11°C° 0.1 mm 3 mps 763 mmHg 85%
    12:00 +12°C° 0.1 mm 3 mps 763 mmHg 85%
    13:00 +12°C° 0.1 mm 3 mps 763 mmHg 85%
    14:00 +12°C° 0.1 mm 3 mps 763 mmHg 86%
    15:00 +12°C° 0.1 mm 3 mps 763 mmHg 87%
    16:00 +12°C° 0.1 mm 2 mps 763 mmHg 88%
    17:00 +12°C° 0.1 mm 2 mps 763 mmHg 90%
    18:00 +12°C° 0.1 mm 2 mps 764 mmHg 92%
    19:00 +10°C° 0 mm 2 mps 764 mmHg 92%
    20:00 +10°C° 0 mm 1 mps 764 mmHg 93%
    21:00 +10°C° 0 mm 1 mps 764 mmHg 93%
    22:00 +10°C° 0 mm 1 mps 764 mmHg 93%
    23:00 +8°C° 0 mm 2 mps 764 mmHg 94%
    Show more